Weather History for Altoona, PA

Change the Weather History Date:

Friday, November 2, 2012

  Actual Average Record
Temperature  
Mean Temperature 40 °F 46 °F  
Max Temperature 42 °F 56 °F 77 °F (1982)
Min Temperature 37 °F 37 °F 23 °F (2010)
Degree Days  
Heating Degree Days 26 19  
Month to date heating degree days 37  
Since 1 July heating degree days 644  
Cooling Degree Days 0 0  
Month to date cooling degree days 0  
Year to date cooling degree days 522  
Moisture  
Dew Point 31 °F    
Average Humidity 74    
Maximum Humidity 87    
Minimum Humidity 65    
Precipitation  
Precipitation 0.01 in 0.10 in 1.65 in (1999)
Month to date precipitation 0.21  
Year to date precipitation 27.19  
Sea Level Pressure  
Sea Level Pressure 29.79 in    
Wind  
Wind Speed 10 mph (West)    
Max Wind Speed 17 mph    
Max Gust Speed 29 mph    
Visibility 10 miles    
Events Rain , Snow    
T = Trace of Precipitation, MM = Missing Value Source: NWS Daily Summary

Daily Weather History Graph

Daily Weather History Graph

Search for Another Location

Airport:

Trip Planner

Search our weather history database for the weather conditions in past years. The results will help you decide how hot, cold, wet, or windy it might be!

Date:

Astronomy

Nov. 02, 2012 Rise Set
Actual Time 7:44 AM EDT 6:08 PM EDT
Civil Twilight 7:16 AM EDT 6:36 PM EDT
Nautical Twilight 6:44 AM EDT 7:09 PM EDT
Astronomical Twilight 6:12 AM EDT 7:40 PM EDT
Moon 8:53 PM EDT (11/2) 11:03 AM EDT (11/2)
Length of Visible Light 11h 20m
Length of Day
10h 24m
Waning Gibbous, 87% of the Moon is Illuminated
Nov 2
Waning Gibbous
Nov 6
Last Quarter
Nov 13
New
Nov 20
First Quarter
Nov 28
Full

Hourly Weather History & Observations

Time (EDT) Temp. Windchill Dew Point Humidity Pressure Visibility Wind Dir Wind Speed Gust Speed Precip Events Conditions
12:53 AM 39.0 °F 34.0 °F 32.0 °F 76% 29.74 in 10.0 mi West 6.9 mph - N/A   Overcast
1:53 AM 37.9 °F 32.7 °F 30.9 °F 76% 29.74 in 10.0 mi West 6.9 mph - N/A   Mostly Cloudy
2:49 AM 37.4 °F 32.1 °F 32.0 °F 81% 29.70 in 10.0 mi West 6.9 mph - N/A   Mostly Cloudy
2:53 AM 37.0 °F 32.4 °F 30.9 °F 79% 29.73 in 10.0 mi West 5.8 mph - N/A   Scattered Clouds
3:37 AM 37.4 °F 31.4 °F 32.0 °F 81% 29.70 in 10.0 mi WSW 8.1 mph - N/A   Mostly Cloudy
3:53 AM 37.0 °F 31.0 °F 32.0 °F 82% 29.73 in 10.0 mi WSW 8.1 mph - N/A   Mostly Cloudy
4:08 AM 37.4 °F 31.4 °F 32.0 °F 81% 29.69 in 10.0 mi WSW 8.1 mph - N/A   Mostly Cloudy
4:23 AM 37.4 °F 31.4 °F 32.0 °F 81% 29.69 in 10.0 mi WSW 8.1 mph - N/A   Overcast
4:51 AM 37.4 °F 33.8 °F 32.0 °F 81% 29.69 in 10.0 mi WSW 4.6 mph - N/A   Overcast
4:53 AM 37.0 °F 32.4 °F 32.0 °F 82% 29.72 in 10.0 mi SW 5.8 mph - N/A   Overcast
5:30 AM 37.4 °F 32.8 °F 33.8 °F 87% 29.69 in 10.0 mi SW 5.8 mph - N/A   Overcast
5:53 AM 37.9 °F 33.5 °F 32.0 °F 79% 29.72 in 10.0 mi SW 5.8 mph - N/A   Overcast
6:53 AM 39.0 °F 33.4 °F 32.0 °F 76% 29.73 in 10.0 mi West 8.1 mph - N/A   Overcast
7:53 AM 37.9 °F 30.9 °F 33.1 °F 83% 29.75 in 10.0 mi West 10.4 mph - 0.00 in Rain Light Rain
8:53 AM 37.9 °F 31.5 °F 33.1 °F 83% 29.77 in 10.0 mi WNW 9.2 mph - 0.01 in   Overcast
9:35 AM 37.4 °F 30.3 °F 32.0 °F 81% 29.74 in 10.0 mi West 10.4 mph - N/A   Overcast
9:53 AM 39.0 °F 33.4 °F 30.9 °F 73% 29.78 in 10.0 mi WNW 8.1 mph - N/A   Overcast
10:53 AM 42.1 °F 34.9 °F 32.0 °F 67% 29.78 in 10.0 mi WNW 13.8 mph 23.0 mph N/A   Mostly Cloudy
11:53 AM 41.0 °F 33.1 °F 30.9 °F 67% 29.79 in 10.0 mi West 15.0 mph - N/A   Overcast
12:53 PM 42.1 °F 35.2 °F 30.9 °F 65% 29.79 in 10.0 mi WNW 12.7 mph 20.7 mph N/A   Overcast
1:53 PM 42.1 °F 33.9 °F 30.9 °F 65% 29.79 in 10.0 mi WNW 17.3 mph 21.9 mph N/A   Overcast
2:08 PM 41.0 °F 33.5 °F 30.2 °F 65% 29.76 in 10.0 mi WNW 13.8 mph 24.2 mph N/A   Overcast
2:53 PM 41.0 °F 33.1 °F 30.9 °F 67% 29.80 in 10.0 mi WNW 15.0 mph 25.3 mph N/A   Overcast
3:53 PM 39.9 °F 31.8 °F 34.0 °F 79% 29.82 in 9.0 mi WNW 15.0 mph 20.7 mph 0.00 in Rain Light Rain
4:26 PM 39.2 °F 30.8 °F 30.2 °F 70% 29.81 in 10.0 mi WNW 15.0 mph 21.9 mph 0.00 in   Overcast
4:48 PM 39.2 °F 30.8 °F 30.2 °F 70% 29.82 in 10.0 mi WNW 15.0 mph 25.3 mph 0.00 in   Overcast
4:53 PM 39.0 °F 32.3 °F 30.9 °F 73% 29.85 in 10.0 mi WNW 10.4 mph 25.3 mph 0.00 in   Overcast
5:53 PM 39.0 °F 30.6 °F 30.0 °F 70% 29.86 in 10.0 mi NW 15.0 mph 23.0 mph N/A   Overcast
6:12 PM 39.2 °F 31.2 °F 30.2 °F 70% 29.84 in 10.0 mi WNW 13.8 mph 25.3 mph N/A   Overcast
6:35 PM 39.2 °F 30.8 °F 30.2 °F 70% 29.85 in 10.0 mi WNW 15.0 mph 23.0 mph N/A   Mostly Cloudy
6:53 PM 39.0 °F 30.3 °F 30.0 °F 70% 29.89 in 10.0 mi WNW 16.1 mph - N/A   Mostly Cloudy
7:27 PM 39.2 °F 30.5 °F 28.4 °F 65% 29.87 in 10.0 mi WNW 16.1 mph 28.8 mph N/A   Overcast
7:40 PM 39.2 °F 30.5 °F 30.2 °F 70% 29.87 in 10.0 mi WNW 16.1 mph 24.2 mph N/A   Overcast
7:53 PM 39.0 °F 30.3 °F 28.9 °F 67% 29.91 in 10.0 mi WNW 16.1 mph 27.6 mph N/A   Overcast
8:53 PM 39.0 °F 30.6 °F 28.9 °F 67% 29.92 in 10.0 mi WNW 15.0 mph 21.9 mph N/A   Overcast
9:53 PM 37.9 °F 28.9 °F 28.9 °F 70% 29.93 in 10.0 mi WNW 16.1 mph 25.3 mph N/A   Overcast
10:53 PM 37.9 °F 30.0 °F 28.9 °F 70% 29.94 in 10.0 mi WNW 12.7 mph 20.7 mph N/A   Overcast
11:53 PM 37.0 °F 28.5 °F 30.0 °F 76% 29.95 in 9.0 mi NW 13.8 mph - 0.00 in Snow Light Snow